Back to catalog

STARLINK-3716

AliveCommunicationsVLEO
NORAD 52092·PAYLOAD·🇺🇸 United States

Launched Mar 19, 2022 from Cape Canaveral Space Force Station

Loading…

Next Passes (next 24 hours)

TLE

FreshSource: CelesTrak SupGP

Epoch: Sep 14, 2026, 21:00 UTC

1 52092C 22029E   26257.87548611 -.00012860  00000+0 -31823-3 0  2570
2 52092  53.1621 311.5377 0001816  74.3324 322.2301 15.39874499    17

Track STARLINK-3716 in real time with AllMySat

Download on the App Store